Year,Month,Day,Hour,Minute,Value (Times are PST for temperature in C)
2021,04,17,00,00,9.50
2021,04,17,00,01,9.50
2021,04,17,00,02,9.50
2021,04,17,00,03,9.50
2021,04,17,00,04,9.50
2021,04,17,00,05,9.50
2021,04,17,00,06,9.50
2021,04,17,00,07,9.50
2021,04,17,00,08,9.50
2021,04,17,00,09,9.40
2021,04,17,00,10,9.40
2021,04,17,00,11,9.40
2021,04,17,00,12,9.40
2021,04,17,00,13,9.40
2021,04,17,00,14,9.40
2021,04,17,00,15,9.40
2021,04,17,00,16,9.40
2021,04,17,00,17,9.40
2021,04,17,00,18,9.40
2021,04,17,00,19,9.40
2021,04,17,00,20,9.40
2021,04,17,00,21,9.40
2021,04,17,00,22,9.40
2021,04,17,00,23,9.40
2021,04,17,00,24,9.40
2021,04,17,00,25,9.40
2021,04,17,00,26,9.40
2021,04,17,00,27,9.40
2021,04,17,00,28,9.50
2021,04,17,00,29,9.50
2021,04,17,00,30,9.50
2021,04,17,00,31,9.50
2021,04,17,00,32,9.50
2021,04,17,00,33,9.50
2021,04,17,00,34,9.50
2021,04,17,00,35,9.50
2021,04,17,00,36,9.50
2021,04,17,00,37,9.50
2021,04,17,00,38,9.50
2021,04,17,00,39,9.40
2021,04,17,00,40,9.40
2021,04,17,00,41,9.40
2021,04,17,00,42,9.40
2021,04,17,00,43,9.30
2021,04,17,00,44,9.30
2021,04,17,00,45,9.30
2021,04,17,00,46,9.20
2021,04,17,00,47,9.20
2021,04,17,00,48,9.20
2021,04,17,00,49,9.10
2021,04,17,00,50,9.10
2021,04,17,00,51,9.10
2021,04,17,00,52,9.10
2021,04,17,00,53,9.00
2021,04,17,00,54,9.00
2021,04,17,00,55,9.00
2021,04,17,00,56,8.90
2021,04,17,00,57,8.90
2021,04,17,00,58,8.90
2021,04,17,00,59,8.90
2021,04,17,01,00,8.90
2021,04,17,01,01,8.90
2021,04,17,01,02,8.80
2021,04,17,01,03,8.80
2021,04,17,01,04,8.80
2021,04,17,01,05,8.80
2021,04,17,01,06,8.80
2021,04,17,01,07,8.80
2021,04,17,01,08,8.80
2021,04,17,01,09,8.80
2021,04,17,01,10,8.80
2021,04,17,01,11,8.80
2021,04,17,01,12,8.80
2021,04,17,01,13,8.80
2021,04,17,01,14,8.80
2021,04,17,01,15,8.70
2021,04,17,01,16,8.70
2021,04,17,01,17,8.70
2021,04,17,01,18,8.70
2021,04,17,01,19,8.70
2021,04,17,01,20,8.70
2021,04,17,01,21,8.80
2021,04,17,01,22,8.80
2021,04,17,01,23,8.80
2021,04,17,01,24,8.90
2021,04,17,01,25,8.90
2021,04,17,01,26,9.00
2021,04,17,01,27,9.00
2021,04,17,01,28,9.10
2021,04,17,01,29,9.10
2021,04,17,01,30,9.10
2021,04,17,01,31,9.10
2021,04,17,01,32,9.20
2021,04,17,01,33,9.20
2021,04,17,01,34,9.20
2021,04,17,01,35,9.20
2021,04,17,01,36,9.10
2021,04,17,01,37,9.10
2021,04,17,01,38,9.10
2021,04,17,01,39,9.10
2021,04,17,01,40,9.10
2021,04,17,01,41,9.10
2021,04,17,01,42,9.10
2021,04,17,01,43,9.10
2021,04,17,01,44,9.00
2021,04,17,01,45,9.00
2021,04,17,01,46,9.00
2021,04,17,01,47,9.00
2021,04,17,01,48,8.90
2021,04,17,01,49,8.90
2021,04,17,01,50,8.90
2021,04,17,01,51,8.90
2021,04,17,01,52,8.90
2021,04,17,01,53,8.90
2021,04,17,01,54,8.90
2021,04,17,01,55,8.90
2021,04,17,01,56,8.80
2021,04,17,01,57,8.90
2021,04,17,01,58,8.90
2021,04,17,01,59,8.90
2021,04,17,02,00,8.90
2021,04,17,02,01,8.90
2021,04,17,02,02,8.90
2021,04,17,02,03,8.90
2021,04,17,02,04,8.90
2021,04,17,02,05,8.90
2021,04,17,02,06,8.90
2021,04,17,02,07,8.90
2021,04,17,02,08,8.90
2021,04,17,02,09,8.90
2021,04,17,02,10,8.90
2021,04,17,02,11,8.90
2021,04,17,02,12,8.90
2021,04,17,02,13,8.80
2021,04,17,02,14,8.80
2021,04,17,02,15,8.80
2021,04,17,02,16,8.80
2021,04,17,02,17,8.80
2021,04,17,02,18,8.70
2021,04,17,02,19,8.70
2021,04,17,02,20,8.70
2021,04,17,02,21,8.70
2021,04,17,02,22,8.70
2021,04,17,02,23,8.70
2021,04,17,02,24,8.70
2021,04,17,02,25,8.70
2021,04,17,02,26,8.70
2021,04,17,02,27,8.60
2021,04,17,02,28,8.60
2021,04,17,02,29,8.60
2021,04,17,02,30,8.60
2021,04,17,02,31,8.60
2021,04,17,02,32,8.60
2021,04,17,02,33,8.60
2021,04,17,02,34,8.70
2021,04,17,02,35,8.80
2021,04,17,02,36,8.80
2021,04,17,02,37,8.90
2021,04,17,02,38,9.00
2021,04,17,02,39,9.00
2021,04,17,02,40,9.00
2021,04,17,02,41,9.00
2021,04,17,02,42,9.10
2021,04,17,02,43,9.00
2021,04,17,02,44,9.00
2021,04,17,02,45,8.90
2021,04,17,02,46,8.90
2021,04,17,02,47,9.00
2021,04,17,02,48,9.10
2021,04,17,02,49,9.20
2021,04,17,02,50,9.30
2021,04,17,02,51,9.30
2021,04,17,02,52,9.30
2021,04,17,02,53,9.40
2021,04,17,02,54,9.40
2021,04,17,02,55,9.40
2021,04,17,02,56,9.40
2021,04,17,02,57,9.40
2021,04,17,02,58,9.40
2021,04,17,02,59,9.30
2021,04,17,03,00,9.30
2021,04,17,03,01,9.30
2021,04,17,03,02,9.30
2021,04,17,03,03,9.30
2021,04,17,03,04,9.30
2021,04,17,03,05,9.20
2021,04,17,03,06,9.20
2021,04,17,03,07,9.20
2021,04,17,03,08,9.20
2021,04,17,03,09,9.20
2021,04,17,03,10,9.20
2021,04,17,03,11,9.10
2021,04,17,03,12,9.10
2021,04,17,03,13,9.10
2021,04,17,03,14,9.10
2021,04,17,03,15,9.00
2021,04,17,03,16,9.00
2021,04,17,03,17,8.90
2021,04,17,03,18,8.90
2021,04,17,03,19,8.90
2021,04,17,03,20,8.90
2021,04,17,03,21,8.80
2021,04,17,03,22,8.80
2021,04,17,03,23,8.80
2021,04,17,03,24,8.80
2021,04,17,03,25,8.80
2021,04,17,03,26,8.70
2021,04,17,03,27,8.70
2021,04,17,03,28,8.70
2021,04,17,03,29,8.70
2021,04,17,03,30,8.60
2021,04,17,03,31,8.60
2021,04,17,03,32,8.60
2021,04,17,03,33,8.60
2021,04,17,03,34,8.50
2021,04,17,03,35,8.50
2021,04,17,03,36,8.50
2021,04,17,03,37,8.40
2021,04,17,03,38,8.40
2021,04,17,03,39,8.40
2021,04,17,03,40,8.40
2021,04,17,03,41,8.40
2021,04,17,03,42,8.40
2021,04,17,03,43,8.40
2021,04,17,03,44,8.40
2021,04,17,03,45,8.30
2021,04,17,03,46,8.30
2021,04,17,03,47,8.30
2021,04,17,03,48,8.30
2021,04,17,03,49,8.30
2021,04,17,03,50,8.30
2021,04,17,03,51,8.30
2021,04,17,03,52,8.30
2021,04,17,03,53,8.30
2021,04,17,03,54,8.30
2021,04,17,03,55,8.40
2021,04,17,03,56,8.40
2021,04,17,03,57,8.40
2021,04,17,03,58,8.30
2021,04,17,03,59,8.30
2021,04,17,04,00,8.30
2021,04,17,04,01,8.30
2021,04,17,04,02,8.30
2021,04,17,04,03,8.30
2021,04,17,04,04,8.30
2021,04,17,04,05,8.30
2021,04,17,04,06,8.30
2021,04,17,04,07,8.30
2021,04,17,04,08,8.30
2021,04,17,04,09,8.30
2021,04,17,04,10,8.30
2021,04,17,04,11,8.20
2021,04,17,04,12,8.20
2021,04,17,04,13,8.20
2021,04,17,04,14,8.20
2021,04,17,04,15,8.10
2021,04,17,04,16,8.10
2021,04,17,04,17,8.10
2021,04,17,04,18,8.00
2021,04,17,04,19,8.00
2021,04,17,04,20,8.00
2021,04,17,04,21,8.00
2021,04,17,04,22,8.00
2021,04,17,04,23,8.00
2021,04,17,04,24,8.00
2021,04,17,04,25,8.00
2021,04,17,04,26,8.00
2021,04,17,04,27,8.00
2021,04,17,04,28,8.00
2021,04,17,04,29,8.00
2021,04,17,04,30,8.00
2021,04,17,04,31,8.00
2021,04,17,04,32,8.00
2021,04,17,04,33,8.00
2021,04,17,04,34,8.00
2021,04,17,04,35,8.00
2021,04,17,04,36,8.00
2021,04,17,04,37,7.90
2021,04,17,04,38,7.90
2021,04,17,04,39,8.00
2021,04,17,04,40,8.00
2021,04,17,04,41,8.00
2021,04,17,04,42,8.00
2021,04,17,04,43,8.00
2021,04,17,04,44,8.10
2021,04,17,04,45,8.10
2021,04,17,04,46,8.10
2021,04,17,04,47,8.10
2021,04,17,04,48,8.20
2021,04,17,04,49,8.20
2021,04,17,04,50,8.20
2021,04,17,04,51,8.20
2021,04,17,04,52,8.20
2021,04,17,04,53,8.20
2021,04,17,04,54,8.20
2021,04,17,04,55,8.10
2021,04,17,04,56,8.10
2021,04,17,04,57,8.10
2021,04,17,04,58,8.10
2021,04,17,04,59,8.10
2021,04,17,05,00,8.10
2021,04,17,05,01,8.10
2021,04,17,05,02,8.10
2021,04,17,05,03,8.10
2021,04,17,05,04,8.10
2021,04,17,05,05,8.00
2021,04,17,05,06,7.90
2021,04,17,05,07,7.80
2021,04,17,05,08,7.80
2021,04,17,05,09,7.70
2021,04,17,05,10,7.70
2021,04,17,05,11,7.60
2021,04,17,05,12,7.60
2021,04,17,05,13,7.60
2021,04,17,05,14,7.60
2021,04,17,05,15,7.60
2021,04,17,05,16,7.60
2021,04,17,05,17,7.60
2021,04,17,05,18,7.50
2021,04,17,05,19,7.40
2021,04,17,05,20,7.40
2021,04,17,05,21,7.30
2021,04,17,05,22,7.30
2021,04,17,05,23,7.30
2021,04,17,05,24,7.30
2021,04,17,05,25,7.30
2021,04,17,05,26,7.30
2021,04,17,05,27,7.30
2021,04,17,05,28,7.30
2021,04,17,05,29,7.30
2021,04,17,05,30,7.30
2021,04,17,05,31,7.30
2021,04,17,05,32,7.30
2021,04,17,05,33,7.30
2021,04,17,05,34,7.30
2021,04,17,05,35,7.30
2021,04,17,05,36,7.30
2021,04,17,05,37,7.30
2021,04,17,05,38,7.30
2021,04,17,05,39,7.30
2021,04,17,05,40,7.20
2021,04,17,05,41,7.20
2021,04,17,05,42,7.20
2021,04,17,05,43,7.20
2021,04,17,05,44,7.20
2021,04,17,05,45,7.20
2021,04,17,05,46,7.20
2021,04,17,05,47,7.20
2021,04,17,05,48,7.20
2021,04,17,05,49,7.20
2021,04,17,05,50,7.20
2021,04,17,05,51,7.20
2021,04,17,05,52,7.20
2021,04,17,05,53,7.20
2021,04,17,05,54,7.20
2021,04,17,05,55,7.20
2021,04,17,05,56,7.20
2021,04,17,05,57,7.20
2021,04,17,05,58,7.20
2021,04,17,05,59,7.20
2021,04,17,06,00,7.20
2021,04,17,06,01,7.20
2021,04,17,06,02,7.20
2021,04,17,06,03,7.20
2021,04,17,06,04,7.20
2021,04,17,06,05,7.10
2021,04,17,06,06,7.10
2021,04,17,06,07,7.10
2021,04,17,06,08,7.00
2021,04,17,06,09,7.00
2021,04,17,06,10,6.90
2021,04,17,06,11,6.90
2021,04,17,06,12,6.80
2021,04,17,06,13,6.80
2021,04,17,06,14,6.80
2021,04,17,06,15,6.80
2021,04,17,06,16,6.80
2021,04,17,06,17,6.80
2021,04,17,06,18,6.80
2021,04,17,06,19,6.80
2021,04,17,06,20,6.80
2021,04,17,06,21,6.80
2021,04,17,06,22,6.80
2021,04,17,06,23,6.80
2021,04,17,06,24,6.80
2021,04,17,06,25,6.90
2021,04,17,06,26,6.90
2021,04,17,06,27,6.90
2021,04,17,06,28,6.90
2021,04,17,06,29,6.90
2021,04,17,06,30,6.90
2021,04,17,06,31,6.90
2021,04,17,06,32,7.00
2021,04,17,06,33,7.00
2021,04,17,06,34,7.10
2021,04,17,06,35,7.10
2021,04,17,06,36,7.10
2021,04,17,06,37,7.20
2021,04,17,06,38,7.20
2021,04,17,06,39,7.20
2021,04,17,06,40,7.20
2021,04,17,06,41,7.30
2021,04,17,06,42,7.30
2021,04,17,06,43,7.30
2021,04,17,06,44,7.40
2021,04,17,06,45,7.40
2021,04,17,06,46,7.40
2021,04,17,06,47,7.50
2021,04,17,06,48,7.50
2021,04,17,06,49,7.60
2021,04,17,06,50,7.60
2021,04,17,06,51,7.70
2021,04,17,06,52,7.70
2021,04,17,06,53,7.80
2021,04,17,06,54,7.90
2021,04,17,06,55,8.00
2021,04,17,06,56,8.00
2021,04,17,06,57,8.10
2021,04,17,06,58,8.20
2021,04,17,06,59,8.20
2021,04,17,07,00,8.30
2021,04,17,07,01,8.30
2021,04,17,07,02,8.40
2021,04,17,07,03,8.40
2021,04,17,07,04,8.40
2021,04,17,07,05,8.40
2021,04,17,07,06,8.50
2021,04,17,07,07,8.50
2021,04,17,07,08,8.60
2021,04,17,07,09,8.60
2021,04,17,07,10,8.60
2021,04,17,07,11,8.60
2021,04,17,07,12,8.60
2021,04,17,07,13,8.60
2021,04,17,07,14,8.60
2021,04,17,07,15,8.70
2021,04,17,07,16,8.70
2021,04,17,07,17,8.70
2021,04,17,07,18,8.80
2021,04,17,07,19,8.80
2021,04,17,07,20,8.80
2021,04,17,07,21,8.90
2021,04,17,07,22,8.90
2021,04,17,07,23,8.90
2021,04,17,07,24,9.00
2021,04,17,07,25,9.00
2021,04,17,07,26,9.00
2021,04,17,07,27,9.00
2021,04,17,07,28,9.00
2021,04,17,07,29,9.00
2021,04,17,07,30,9.10
2021,04,17,07,31,9.10
2021,04,17,07,32,9.10
2021,04,17,07,33,9.10
2021,04,17,07,34,9.20
2021,04,17,07,35,9.20
2021,04,17,07,36,9.20
2021,04,17,07,37,9.20
2021,04,17,07,38,9.30
2021,04,17,07,39,9.40
2021,04,17,07,40,9.50
2021,04,17,07,41,9.60
2021,04,17,07,42,9.70
2021,04,17,07,43,9.80
2021,04,17,07,44,9.90
2021,04,17,07,45,10.00
2021,04,17,07,46,10.10
2021,04,17,07,47,10.20
2021,04,17,07,48,10.30
2021,04,17,07,49,10.30
2021,04,17,07,50,10.50
2021,04,17,07,51,10.50
2021,04,17,07,52,10.70
2021,04,17,07,53,10.80
2021,04,17,07,54,10.90
2021,04,17,07,55,11.00
2021,04,17,07,56,11.20
2021,04,17,07,57,11.30
2021,04,17,07,58,11.40
2021,04,17,07,59,11.50
2021,04,17,08,00,11.60
2021,04,17,08,01,11.80
2021,04,17,08,02,11.90
2021,04,17,08,03,12.00
2021,04,17,08,04,12.10
2021,04,17,08,05,12.20
2021,04,17,08,06,12.30
2021,04,17,08,07,12.30
2021,04,17,08,08,12.40
2021,04,17,08,09,12.40
2021,04,17,08,10,12.40
2021,04,17,08,11,12.50
2021,04,17,08,12,12.50
2021,04,17,08,13,12.60
2021,04,17,08,14,12.60
2021,04,17,08,15,12.70
2021,04,17,08,16,12.70
2021,04,17,08,17,12.80
2021,04,17,08,18,12.80
2021,04,17,08,19,12.90
2021,04,17,08,20,13.00
2021,04,17,08,21,13.00
2021,04,17,08,22,13.10
2021,04,17,08,23,13.20
2021,04,17,08,24,13.20
2021,04,17,08,25,13.30
2021,04,17,08,26,13.30
2021,04,17,08,27,13.40
2021,04,17,08,28,13.50
2021,04,17,08,29,13.60
2021,04,17,08,30,13.60
2021,04,17,08,31,13.70
2021,04,17,08,32,13.70
2021,04,17,08,33,13.70
2021,04,17,08,34,13.80
2021,04,17,08,35,13.80
2021,04,17,08,36,13.90
2021,04,17,08,37,14.00
2021,04,17,08,38,14.00
2021,04,17,08,39,14.10
2021,04,17,08,40,14.20
2021,04,17,08,41,14.30
2021,04,17,08,42,14.40
2021,04,17,08,43,14.50
2021,04,17,08,44,14.60
2021,04,17,08,45,14.70
2021,04,17,08,46,14.80
2021,04,17,08,47,14.90
2021,04,17,08,48,15.10
2021,04,17,08,49,15.20
2021,04,17,08,50,15.30
2021,04,17,08,51,15.40
2021,04,17,08,52,15.50
2021,04,17,08,53,15.60
2021,04,17,08,54,15.80
2021,04,17,08,55,15.80
2021,04,17,08,56,15.90
2021,04,17,08,57,16.00
2021,04,17,08,58,16.10
2021,04,17,08,59,16.20
2021,04,17,09,00,16.30
2021,04,17,09,01,16.40
2021,04,17,09,02,16.50
2021,04,17,09,03,16.60
2021,04,17,09,04,16.70
2021,04,17,09,05,16.80
2021,04,17,09,06,16.90
2021,04,17,09,07,17.00
2021,04,17,09,08,17.00
2021,04,17,09,09,17.00
2021,04,17,09,10,17.00
2021,04,17,09,11,17.00
2021,04,17,09,12,17.00
2021,04,17,09,13,17.00
2021,04,17,09,14,17.10
2021,04,17,09,15,17.00
2021,04,17,09,16,17.00
2021,04,17,09,17,17.00
2021,04,17,09,18,17.10
2021,04,17,09,19,17.10
2021,04,17,09,20,17.20
2021,04,17,09,21,17.20
2021,04,17,09,22,17.30
2021,04,17,09,23,17.30
2021,04,17,09,24,17.30
2021,04,17,09,25,17.30
2021,04,17,09,26,17.30
2021,04,17,09,27,17.40
2021,04,17,09,28,17.40
2021,04,17,09,29,17.40
2021,04,17,09,30,17.40
2021,04,17,09,31,17.30
2021,04,17,09,32,17.30
2021,04,17,09,33,17.30
2021,04,17,09,34,17.30
2021,04,17,09,35,17.40
2021,04,17,09,36,17.40
2021,04,17,09,37,17.40
2021,04,17,09,38,17.50
2021,04,17,09,39,17.60
2021,04,17,09,40,17.60
2021,04,17,09,41,17.70
2021,04,17,09,42,17.90
2021,04,17,09,43,18.00
2021,04,17,09,44,18.20
2021,04,17,09,45,18.30
2021,04,17,09,46,18.40
2021,04,17,09,47,18.40
2021,04,17,09,48,18.50
2021,04,17,09,49,18.60
2021,04,17,09,50,18.70
2021,04,17,09,51,18.80
2021,04,17,09,52,18.90
2021,04,17,09,53,18.90
2021,04,17,09,54,18.90
2021,04,17,09,55,18.80
2021,04,17,09,56,18.80
2021,04,17,09,57,18.90
2021,04,17,09,58,19.00
2021,04,17,09,59,19.00
2021,04,17,10,00,19.10
2021,04,17,10,01,19.20
2021,04,17,10,02,19.20
2021,04,17,10,03,19.10
2021,04,17,10,04,19.00
2021,04,17,10,05,18.90
2021,04,17,10,06,18.80
2021,04,17,10,07,18.80
2021,04,17,10,08,18.70
2021,04,17,10,09,18.80
2021,04,17,10,10,18.80
2021,04,17,10,11,18.90
2021,04,17,10,12,19.00
2021,04,17,10,13,19.10
2021,04,17,10,14,19.20
2021,04,17,10,15,19.30
2021,04,17,10,16,19.20
2021,04,17,10,17,19.20
2021,04,17,10,18,19.10
2021,04,17,10,19,19.00
2021,04,17,10,20,18.90
2021,04,17,10,21,18.90
2021,04,17,10,22,18.90
2021,04,17,10,23,18.90
2021,04,17,10,24,19.00
2021,04,17,10,25,19.10
2021,04,17,10,26,19.10
2021,04,17,10,27,19.10
2021,04,17,10,28,19.10
2021,04,17,10,29,19.10
2021,04,17,10,30,19.00
2021,04,17,10,31,19.00
2021,04,17,10,32,19.10
2021,04,17,10,33,19.20
2021,04,17,10,34,19.30
2021,04,17,10,35,19.30
2021,04,17,10,36,19.40
2021,04,17,10,37,19.60
2021,04,17,10,38,19.70
2021,04,17,10,39,19.70
2021,04,17,10,40,19.80
2021,04,17,10,41,19.80
2021,04,17,10,42,19.90
2021,04,17,10,43,19.90
2021,04,17,10,44,19.80
2021,04,17,10,45,19.70
2021,04,17,10,46,19.60
2021,04,17,10,47,19.40
2021,04,17,10,48,19.40
2021,04,17,10,49,19.40
2021,04,17,10,50,19.40
2021,04,17,10,51,19.50
2021,04,17,10,52,19.50
2021,04,17,10,53,19.50
2021,04,17,10,54,19.50
2021,04,17,10,55,19.40
2021,04,17,10,56,19.30
2021,04,17,10,57,19.20
2021,04,17,10,58,19.20
2021,04,17,10,59,19.30
2021,04,17,11,00,19.40
2021,04,17,11,01,19.50
2021,04,17,11,02,19.50
2021,04,17,11,03,19.40
2021,04,17,11,04,19.30
2021,04,17,11,05,19.20
2021,04,17,11,06,19.20
2021,04,17,11,07,19.10
2021,04,17,11,08,19.10
2021,04,17,11,09,19.10
2021,04,17,11,10,19.20
2021,04,17,11,11,19.20
2021,04,17,11,12,19.30
2021,04,17,11,13,19.30
2021,04,17,11,14,19.20
2021,04,17,11,15,19.10
2021,04,17,11,16,19.10
2021,04,17,11,17,19.10
2021,04,17,11,18,19.00
2021,04,17,11,19,19.00
2021,04,17,11,20,18.90
2021,04,17,11,21,18.80
2021,04,17,11,22,18.70
2021,04,17,11,23,18.70
2021,04,17,11,24,18.80
2021,04,17,11,25,18.90
2021,04,17,11,26,19.00
2021,04,17,11,27,19.10
2021,04,17,11,28,19.10
2021,04,17,11,29,19.10
2021,04,17,11,30,19.20
2021,04,17,11,31,19.10
2021,04,17,11,32,19.10
2021,04,17,11,33,19.20
2021,04,17,11,34,19.20
2021,04,17,11,35,19.10
2021,04,17,11,36,19.10
2021,04,17,11,37,19.10
2021,04,17,11,38,19.10
2021,04,17,11,39,19.20
2021,04,17,11,40,19.20
2021,04,17,11,41,19.30
2021,04,17,11,42,19.40
2021,04,17,11,43,19.40
2021,04,17,11,44,19.50
2021,04,17,11,45,19.60
2021,04,17,11,46,19.70
2021,04,17,11,47,19.70
2021,04,17,11,48,19.70
2021,04,17,11,49,19.70
2021,04,17,11,50,19.60
2021,04,17,11,51,19.60
2021,04,17,11,52,19.60
2021,04,17,11,53,19.60
2021,04,17,11,54,19.70
2021,04,17,11,55,19.80
2021,04,17,11,56,19.80
2021,04,17,11,57,19.90
2021,04,17,11,58,20.00
2021,04,17,11,59,20.10
2021,04,17,12,00,20.00
2021,04,17,12,01,20.00
2021,04,17,12,02,19.90
2021,04,17,12,03,19.90
2021,04,17,12,04,20.00
2021,04,17,12,05,19.90
2021,04,17,12,06,19.90
2021,04,17,12,07,19.90
2021,04,17,12,08,19.90
2021,04,17,12,09,19.90
2021,04,17,12,10,19.90
2021,04,17,12,11,20.00
2021,04,17,12,12,20.20
2021,04,17,12,13,20.30
2021,04,17,12,14,20.30
2021,04,17,12,15,20.30
2021,04,17,12,16,20.30
2021,04,17,12,17,20.20
2021,04,17,12,18,20.30
2021,04,17,12,19,20.30
2021,04,17,12,20,20.40
2021,04,17,12,21,20.50
2021,04,17,12,22,20.60
2021,04,17,12,23,20.70
2021,04,17,12,24,20.80
2021,04,17,12,25,20.90
2021,04,17,12,26,20.90
2021,04,17,12,27,20.90
2021,04,17,12,28,20.80
2021,04,17,12,29,20.70
2021,04,17,12,30,20.70
2021,04,17,12,31,20.70
2021,04,17,12,32,20.70
2021,04,17,12,33,20.80
2021,04,17,12,34,20.90
2021,04,17,12,35,20.90
2021,04,17,12,36,20.90
2021,04,17,12,37,20.80
2021,04,17,12,38,20.70
2021,04,17,12,39,20.60
2021,04,17,12,40,20.60
2021,04,17,12,41,20.60
2021,04,17,12,42,20.50
2021,04,17,12,43,20.50
2021,04,17,12,44,20.50
2021,04,17,12,45,20.50
2021,04,17,12,46,20.60
2021,04,17,12,47,20.70
2021,04,17,12,48,20.70
2021,04,17,12,49,20.80
2021,04,17,12,50,20.90
2021,04,17,12,51,20.80
2021,04,17,12,52,20.80
2021,04,17,12,53,20.80
2021,04,17,12,54,20.80
2021,04,17,12,55,20.80
2021,04,17,12,56,20.90
2021,04,17,12,57,21.00
2021,04,17,12,58,21.00
2021,04,17,12,59,21.10
2021,04,17,13,00,21.10
2021,04,17,13,01,21.00
2021,04,17,13,02,20.90
2021,04,17,13,03,21.00
2021,04,17,13,04,21.10
2021,04,17,13,05,21.20
2021,04,17,13,06,21.30
2021,04,17,13,07,21.20
2021,04,17,13,08,21.20
2021,04,17,13,09,21.20
2021,04,17,13,10,21.20
2021,04,17,13,11,21.30
2021,04,17,13,12,21.30
2021,04,17,13,13,21.40
2021,04,17,13,14,21.50
2021,04,17,13,15,21.50
2021,04,17,13,16,21.40
2021,04,17,13,17,21.50
2021,04,17,13,18,21.50
2021,04,17,13,19,21.60
2021,04,17,13,20,21.70
2021,04,17,13,21,21.70
2021,04,17,13,22,21.70
2021,04,17,13,23,21.70
2021,04,17,13,24,21.70
2021,04,17,13,25,21.70
2021,04,17,13,26,21.70
2021,04,17,13,27,21.70
2021,04,17,13,28,21.80
2021,04,17,13,29,21.80
2021,04,17,13,30,21.80
2021,04,17,13,31,21.80
2021,04,17,13,32,21.90
2021,04,17,13,33,21.90
2021,04,17,13,34,21.80
2021,04,17,13,35,21.90
2021,04,17,13,36,21.90
2021,04,17,13,37,21.90
2021,04,17,13,38,21.90
2021,04,17,13,39,21.90
2021,04,17,13,40,22.00
2021,04,17,13,41,21.90
2021,04,17,13,42,21.90
2021,04,17,13,43,21.90
2021,04,17,13,44,21.80
2021,04,17,13,45,21.80
2021,04,17,13,46,21.90
2021,04,17,13,47,21.80
2021,04,17,13,48,21.80
2021,04,17,13,49,21.80
2021,04,17,13,50,21.80
2021,04,17,13,51,21.90
2021,04,17,13,52,21.90
2021,04,17,13,53,21.90
2021,04,17,13,54,22.00
2021,04,17,13,55,22.10
2021,04,17,13,56,22.20
2021,04,17,13,57,22.20
2021,04,17,13,58,22.30
2021,04,17,13,59,22.30
2021,04,17,14,00,22.30
2021,04,17,14,01,22.30
2021,04,17,14,02,22.30
2021,04,17,14,03,22.30
2021,04,17,14,04,22.30
2021,04,17,14,05,22.30
2021,04,17,14,06,22.30
2021,04,17,14,07,22.40
2021,04,17,14,08,22.40
2021,04,17,14,09,22.40
2021,04,17,14,10,22.50
2021,04,17,14,11,22.60
2021,04,17,14,12,22.60
2021,04,17,14,13,22.70
2021,04,17,14,14,22.80
2021,04,17,14,15,22.80
2021,04,17,14,16,22.60
2021,04,17,14,17,22.50
2021,04,17,14,18,22.50
2021,04,17,14,19,22.60
2021,04,17,14,20,22.80
2021,04,17,14,21,22.80
2021,04,17,14,22,22.80
2021,04,17,14,23,22.90
2021,04,17,14,24,23.00
2021,04,17,14,25,23.10
2021,04,17,14,26,23.20
2021,04,17,14,27,23.30
2021,04,17,14,28,23.30
2021,04,17,14,29,23.30
2021,04,17,14,30,23.20
2021,04,17,14,31,23.20
2021,04,17,14,32,23.30
2021,04,17,14,33,23.40
2021,04,17,14,34,23.30
2021,04,17,14,35,23.20
2021,04,17,14,36,23.20
2021,04,17,14,37,23.10
2021,04,17,14,38,23.10
2021,04,17,14,39,23.20
2021,04,17,14,40,23.20
2021,04,17,14,41,23.30
2021,04,17,14,42,23.40
2021,04,17,14,43,23.50
2021,04,17,14,44,23.50
2021,04,17,14,45,23.50
2021,04,17,14,46,23.50
2021,04,17,14,47,23.60
2021,04,17,14,48,23.70
2021,04,17,14,49,23.80
2021,04,17,14,50,23.90
2021,04,17,14,51,24.10
2021,04,17,14,52,24.10
2021,04,17,14,53,24.00
2021,04,17,14,54,24.00
2021,04,17,14,55,24.10
2021,04,17,14,56,24.10
2021,04,17,14,57,24.20
2021,04,17,14,58,24.20
2021,04,17,14,59,24.30
2021,04,17,15,00,24.40
2021,04,17,15,01,24.30
2021,04,17,15,02,24.20
2021,04,17,15,03,24.30
2021,04,17,15,04,24.30
2021,04,17,15,05,24.40
2021,04,17,15,06,24.30
2021,04,17,15,07,24.20
2021,04,17,15,08,24.10
2021,04,17,15,09,24.00
2021,04,17,15,10,23.80
2021,04,17,15,11,23.70
2021,04,17,15,12,23.50
2021,04,17,15,13,23.40
2021,04,17,15,14,23.30
2021,04,17,15,15,23.20
2021,04,17,15,16,23.20
2021,04,17,15,17,23.30
2021,04,17,15,18,23.30
2021,04,17,15,19,23.40
2021,04,17,15,20,23.60
2021,04,17,15,21,23.60
2021,04,17,15,22,23.50
2021,04,17,15,23,23.40
2021,04,17,15,24,23.40
2021,04,17,15,25,23.40
2021,04,17,15,26,23.30
2021,04,17,15,27,23.20
2021,04,17,15,28,23.20
2021,04,17,15,29,23.10
2021,04,17,15,30,23.00
2021,04,17,15,31,23.00
2021,04,17,15,32,23.10
2021,04,17,15,33,23.00
2021,04,17,15,34,23.10
2021,04,17,15,35,23.20
2021,04,17,15,36,23.20
2021,04,17,15,37,23.30
2021,04,17,15,38,23.30
2021,04,17,15,39,23.40
2021,04,17,15,40,23.50
2021,04,17,15,41,23.50
2021,04,17,15,42,23.50
2021,04,17,15,43,23.60
2021,04,17,15,44,23.60
2021,04,17,15,45,23.60
2021,04,17,15,46,23.60
2021,04,17,15,47,23.60
2021,04,17,15,48,23.50
2021,04,17,15,49,23.50
2021,04,17,15,50,23.50
2021,04,17,15,51,23.50
2021,04,17,15,52,23.50
2021,04,17,15,53,23.40
2021,04,17,15,54,23.30
2021,04,17,15,55,23.20
2021,04,17,15,56,23.10
2021,04,17,15,57,23.10
2021,04,17,15,58,23.10
2021,04,17,15,59,23.10
2021,04,17,16,00,23.20
2021,04,17,16,01,23.20
2021,04,17,16,02,23.20
2021,04,17,16,03,23.20
2021,04,17,16,04,23.20
2021,04,17,16,05,23.20
2021,04,17,16,06,23.30
2021,04,17,16,07,23.30
2021,04,17,16,08,23.50
2021,04,17,16,09,23.60
2021,04,17,16,10,23.70
2021,04,17,16,11,23.80
2021,04,17,16,12,23.90
2021,04,17,16,13,24.00
2021,04,17,16,14,24.20
2021,04,17,16,15,24.30
2021,04,17,16,16,24.40
2021,04,17,16,17,24.40
2021,04,17,16,18,24.40
2021,04,17,16,19,24.40
2021,04,17,16,20,24.30
2021,04,17,16,21,24.30
2021,04,17,16,22,24.20
2021,04,17,16,23,24.20
2021,04,17,16,24,24.30
2021,04,17,16,25,24.30
2021,04,17,16,26,24.30
2021,04,17,16,27,24.30
2021,04,17,16,28,24.30
2021,04,17,16,29,24.30
2021,04,17,16,30,24.40
2021,04,17,16,31,24.40
2021,04,17,16,32,24.40
2021,04,17,16,33,24.30
2021,04,17,16,34,24.30
2021,04,17,16,35,24.20
2021,04,17,16,36,24.10
2021,04,17,16,37,24.10
2021,04,17,16,38,24.00
2021,04,17,16,39,24.00
2021,04,17,16,40,24.10
2021,04,17,16,41,24.10
2021,04,17,16,42,24.20
2021,04,17,16,43,24.20
2021,04,17,16,44,24.20
2021,04,17,16,45,24.30
2021,04,17,16,46,24.30
2021,04,17,16,47,24.30
2021,04,17,16,48,24.30
2021,04,17,16,49,24.30
2021,04,17,16,50,24.30
2021,04,17,16,51,24.30
2021,04,17,16,52,24.20
2021,04,17,16,53,24.20
2021,04,17,16,54,24.20
2021,04,17,16,55,24.20
2021,04,17,16,56,24.20
2021,04,17,16,57,24.10
2021,04,17,16,58,24.10
2021,04,17,16,59,24.00
2021,04,17,17,00,24.00
2021,04,17,17,01,23.90
2021,04,17,17,02,23.90
2021,04,17,17,03,23.90
2021,04,17,17,04,23.90
2021,04,17,17,05,23.90
2021,04,17,17,06,23.90
2021,04,17,17,07,23.90
2021,04,17,17,08,23.90
2021,04,17,17,09,23.90
2021,04,17,17,10,23.80
2021,04,17,17,11,23.80
2021,04,17,17,12,23.80
2021,04,17,17,13,23.80
2021,04,17,17,14,23.70
2021,04,17,17,15,23.70
2021,04,17,17,16,23.60
2021,04,17,17,17,23.60
2021,04,17,17,18,23.50
2021,04,17,17,19,23.40
2021,04,17,17,20,23.40
2021,04,17,17,21,23.40
2021,04,17,17,22,23.40
2021,04,17,17,23,23.40
2021,04,17,17,24,23.40
2021,04,17,17,25,23.40
2021,04,17,17,26,23.50
2021,04,17,17,27,23.60
2021,04,17,17,28,23.70
2021,04,17,17,29,23.80
2021,04,17,17,30,23.80
2021,04,17,17,31,23.80
2021,04,17,17,32,23.90
2021,04,17,17,33,23.90
2021,04,17,17,34,23.90
2021,04,17,17,35,23.90
2021,04,17,17,36,24.00
2021,04,17,17,37,24.00
2021,04,17,17,38,24.10
2021,04,17,17,39,24.10